This demonstration page uses our WeatherBlox Daily Observations layout. Learn more.

Left ArrowRight Arrow

39.92423, -83.80882

Hourly Observations for January 4, 2022

Temp ( °F °C ) Dew Point ( °F °C ) Humidity (%) Winds ( mph kmh ) Pressure ( in mb ) Visibility ( mi km ) Precip ( " mm )
12:56 am 00:56 Clear 21 -6.1 21 -6.1 100 100 Calm 30.39 1029 10 16 0.00 0.00
1:56 am 01:56 Clear 22 -5.6 20 -6.7 92 92 S 3 6 30.39 1029 10 16 0.00 0.00
2:56 am 02:56 Clear 22 -5.6 20 -6.7 92 92 S 5 7 30.39 1029 10 16 0.00 0.00
3:56 am 03:56 Clear 22 -5.6 20 -6.7 92 92 S 5 7 30.38 1029 10 16 0.00 0.00
4:56 am 04:56 Clear 22 -5.6 20 -6.7 92 92 Calm 30.36 1028 10 16 0.00 0.00
5:56 am 05:56 Clear 21 -6.1 20 -6.7 96 96 S 6 9 30.35 1028 10 16 0.00 0.00
6:56 am 06:56 Clear 22 -5.6 20 -6.7 92 92 S 6 9 30.35 1028 10 16 0.00 0.00
7:56 am 07:56 Clear 23 -5 19 -7.2 85 85 S 7 11 30.34 1028 10 16 0.00 0.00
8:56 am 08:56 Sunny 25 -3.9 21 -6.1 85 85 S 6 9 30.32 1027 10 16 0.00 0.00
9:56 am 09:56 Sunny 29 -1.7 22 -5.6 75 75 S 7 11 30.32 1027 10 16 0.00 0.00
10:56 am 10:56 Sunny 31 -0.6 24 -4.4 76 76 S 9 15 30.31 1026 10 16 0.00 0.00
11:56 am 11:56 Sunny 33 0.6 24 -4.4 70 70 S 9 15 30.27 1025 10 16 0.00 0.00
12:56 pm 12:56 Sunny 36 2.2 26 -3.3 67 67 S 9 15 30.22 1023 10 16 0.00 0.00
1:56 pm 13:56 Sunny 37 2.8 26 -3.3 65 65 S 12 19 30.15 1021 10 16 0.00 0.00
2:56 pm 14:56 Sunny 39 3.9 24 -4.4 55 55 S 9 15 30.10 1019 10 16 0.00 0.00
3:56 pm 15:56 Sunny 39 3.9 24 -4.4 55 55 SSE 14 22 30.06 1018 10 16 0.00 0.00
4:56 pm 16:56 Sunny 38 3.3 24 -4.4 57 57 S 10 17 30.05 1018 10 16 0.00 0.00
5:56 pm 17:56 Clear 35 1.7 27 -2.8 72 72 SSE 8 13 30.04 1017 10 16 0.00 0.00
6:56 pm 18:56 Clear 35 1.7 27 -2.8 72 72 SSE 12 19 29.99 1016 10 16 0.00 0.00
7:56 pm 19:56 Clear 36 2.2 28 -2.2 73 73 S 13 20 29.97 1015 10 16 0.00 0.00
8:56 pm 20:56 Clear 37 2.8 31 -0.6 79 79 S 14 22 29.90 1013 10 16 0.00 0.00
9:56 pm 21:56 Clear 38 3.3 31 -0.6 76 76 S 14 22 29.87 1011 10 16 0.00 0.00
10:56 pm 22:56 Clear 39 3.9 30 -1.1 70 70 S 15 24 29.85 1011 10 16 0.00 0.00
11:56 pm 23:56 Clear 40 4.4 31 -0.6 70 70 SSW 18 30 29.81 1010 10 16 0.00 0.00

Powered by AerisWeather